K7RAP Weather Reports


time (UTC)temp
C
wind
direction
speed
KPH
gust
KPH
rain 1hr
cm
rain 24hr
cm
rain mn
cm
humidity
%
barometer
mb
20260507033010 13 228 8.0 6.4 0.00 0.00 0.00 77 1020.0
20260507031004 13 223 4.8 9.7 0.00 0.00 0.00 77 1020.0
20260507030004 13 241 6.4 12.9 0.00 0.00 0.00 76 1020.0
20260507025003 13 241 6.4 12.9 0.00 0.00 0.00 76 1020.0
20260507024003 13 226 1.6 16.1 0.00 0.00 0.00 75 1020.0
20260507023003 14 233 4.8 11.3 0.00 0.00 0.00 74 1020.0
20260507022004 14 233 4.8 11.3 0.00 0.00 0.00 74 1020.0
20260507021004 14 194 1.6 11.3 0.00 0.00 0.00 73 1020.0
20260507020003 15 235 6.4 14.5 0.00 0.00 0.00 72 1020.0
20260507015003 15 235 6.4 14.5 0.00 0.00 0.00 72 1020.0
20260507014003 15 189 6.4 19.3 0.00 0.00 0.00 71 1020.0
20260507013004 15 208 1.6 12.9 0.00 0.00 0.00 71 1020.0
20260507012003 15 208 1.6 12.9 0.00 0.00 0.00 71 1020.0
20260507011008 15 211 1.6 12.9 0.00 0.00 0.00 71 1020.0
20260507010004 16 207 4.8 19.3 0.00 0.00 0.00 70 1020.0
20260507005004 16 207 4.8 19.3 0.00 0.00 0.00 70 1020.0
20260507004003 16 241 14.5 14.5 0.00 0.00 0.00 71 1020.0
20260507003004 15 230 9.7 11.3 0.00 0.00 0.00 72 1020.0
20260507002004 15 230 9.7 11.3 0.00 0.00 0.00 72 1020.0
20260507001004 15 237 8.0 14.5 0.00 0.00 0.00 71 1020.0
20260507000004 16 206 11.3 20.9 0.00 0.00 0.00 69 1020.0
20260506235003 16 206 11.3 20.9 0.00 0.00 0.00 69 1020.0
20260506234003 16 217 6.4 22.5 0.00 0.00 0.00 69 1020.0
20260506233009 16 227 6.4 12.9 0.00 0.00 0.00 70 1020.0
20260506232004 16 227 6.4 12.9 0.00 0.00 0.00 70 1020.0
20260506231003 16 236 8.0 12.9 0.00 0.00 0.00 71 1020.0
20260506230005 16 222 6.4 16.1 0.00 0.00 0.00 71 1020.0
20260506225004 16 222 6.4 16.1 0.00 0.00 0.00 71 1020.0
20260506224003 16 242 4.8 14.5 0.00 0.00 0.00 72 1020.3
20260506223003 16 212 4.8 14.5 0.00 0.00 0.00 72 1020.3
20260506222003 16 212 4.8 14.5 0.00 0.00 0.00 72 1020.3
20260506221004 16 217 4.8 11.3 0.00 0.00 0.00 72 1020.3
20260506220004 16 225 8.0 12.9 0.00 0.00 0.00 70 1020.3
20260506215004 16 225 8.0 12.9 0.00 0.00 0.00 70 1020.3
20260506214003 16 224 9.7 14.5 0.00 0.00 0.00 71 1020.3
20260506213004 16 215 6.4 12.9 0.00 0.00 0.00 70 1020.3
20260506212003 16 215 6.4 12.9 0.00 0.00 0.00 70 1020.3
20260506211004 17 201 6.4 12.9 0.00 0.00 0.00 69 1020.3
20260506210005 17 125 6.4 12.9 0.00 0.00 0.00 69 1020.0
20260506205004 17 125 6.4 12.9 0.00 0.00 0.00 69 1020.0
20260506204004 16 250 3.2 11.3 0.00 0.00 0.00 73 1020.3
20260506203003 16 214 4.8 14.5 0.00 0.00 0.00 72 1020.3
20260506202003 16 214 4.8 14.5 0.00 0.00 0.00 72 1020.3
20260506201003 15 118 0.0 14.5 0.00 0.00 0.00 73 1020.0
20260506200004 15 225 6.4 12.9 0.00 0.00 0.00 73 1020.3
20260506195004 15 225 6.4 12.9 0.00 0.00 0.00 73 1020.3
20260506194004 15 216 1.6 9.7 0.00 0.00 0.00 74 1020.0
20260506193003 15 217 3.2 11.3 0.00 0.00 0.00 74 1020.0
20260506192003 15 217 3.2 11.3 0.00 0.00 0.00 74 1020.0
20260506191003 15 239 8.0 16.1 0.00 0.00 0.00 74 1020.0
20260506190004 15 222 1.6 11.3 0.00 0.00 0.00 74 1020.0
20260506185003 15 222 1.6 11.3 0.00 0.00 0.00 74 1020.0
20260506184003 15 235 6.4 9.7 0.00 0.00 0.00 73 1020.0
20260506183005 14 223 6.4 14.5 0.00 0.00 0.00 73 1020.0
20260506182003 14 223 6.4 14.5 0.00 0.00 0.00 73 1020.0
20260506181003 14 167 0.0 8.0 0.00 0.00 0.00 74 1020.0
20260506180005 14 238 3.2 8.0 0.00 0.00 0.00 76 1020.0
20260506175003 14 238 3.2 8.0 0.00 0.00 0.00 76 1020.0
20260506174004 13 221 4.8 11.3 0.00 0.00 0.00 77 1020.0
20260506173004 13 203 3.2 8.0 0.00 0.00 0.00 77 1019.6
20260506172004 13 203 3.2 8.0 0.00 0.00 0.00 77 1019.6
20260506171003 13 215 4.8 6.4 0.00 0.00 0.00 77 1019.6
20260506170004 13 229 0.0 11.3 0.00 0.00 0.00 78 1019.6
20260506165005 13 229 0.0 11.3 0.00 0.00 0.00 78 1019.6
20260506164003 13 225 0.0 8.0 0.00 0.00 0.00 78 1019.6
20260506163004 13 235 4.8 6.4 0.00 0.00 0.00 78 1019.6
20260506162004 13 235 4.8 6.4 0.00 0.00 0.00 78 1019.6
20260506161003 13 210 1.6 9.7 0.00 0.00 0.00 79 1019.6
20260506160004 13 233 4.8 8.0 0.00 0.00 0.00 79 1019.3
20260506155003 13 233 4.8 8.0 0.00 0.00 0.00 79 1019.3
20260506154003 13 126 1.6 4.8 0.00 0.00 0.00 79 1019.3
20260506153004 13 213 1.6 6.4 0.00 0.00 0.00 80 1019.3
20260506152004 13 213 1.6 6.4 0.00 0.00 0.00 80 1019.3
20260506151004 12 221 3.2 4.8 0.00 0.00 0.00 80 1019.0
20260506150004 12 229 1.6 4.8 0.00 0.00 0.00 82 1018.6
20260506145003 12 229 1.6 4.8 0.00 0.00 0.00 82 1018.6
20260506144003 12 236 1.6 4.8 0.00 0.00 0.00 82 1019.0
20260506143004 12 219 3.2 4.8 0.00 0.00 0.00 83 1019.0
20260506142004 12 219 3.2 4.8 0.00 0.00 0.00 83 1019.0
20260506141004 12 221 0.0 6.4 0.00 0.00 0.00 83 1019.3
20260506140004 12 223 0.0 6.4 0.00 0.00 0.00 84 1019.0
20260506135003 12 223 0.0 6.4 0.00 0.00 0.00 84 1019.0
20260506134003 12 232 1.6 3.2 0.00 0.00 0.00 84 1018.6
20260506133004 12 250 0.0 4.8 0.00 0.00 0.00 84 1018.3
20260506132003 12 250 0.0 4.8 0.00 0.00 0.00 84 1018.3
20260506131004 12 231 4.8 6.4 0.00 0.00 0.00 83 1018.6
20260506130006 12 227 1.6 4.8 0.00 0.00 0.00 84 1018.3
20260506125003 12 227 1.6 4.8 0.00 0.00 0.00 84 1018.3
20260506124003 12 327 0.0 3.2 0.00 0.00 0.00 83 1018.3
20260506123004 12 235 0.0 3.2 0.00 0.00 0.00 84 1017.9
20260506122004 12 235 0.0 3.2 0.00 0.00 0.00 84 1017.9
20260506121003 12 220 0.0 3.2 0.00 0.00 0.00 84 1017.9
20260506120005 12 200 1.6 4.8 0.00 0.00 0.00 84 1017.9
20260506115004 12 200 1.6 4.8 0.00 0.00 0.00 84 1017.9
20260506114004 12 245 0.0 3.2 0.00 0.00 0.00 83 1017.9
20260506112003 12 225 0.0 3.2 0.00 0.00 0.00 84 1017.9
20260506111003 12 198 3.2 3.2 0.00 0.00 0.00 84 1017.6
20260506110004 12 217 1.6 3.2 0.00 0.00 0.00 84 1017.6
20260506105003 12 217 1.6 3.2 0.00 0.00 0.00 84 1017.6
20260506104005 12 217 0.0 4.8 0.00 0.00 0.00 84 1017.6
20260506103004 12 203 3.2 6.4 0.00 0.00 0.00 84 1017.3
20260506102003 12 203 3.2 6.4 0.00 0.00 0.00 84 1017.3
20260506101003 12 219 0.0 3.2 0.00 0.00 0.00 83 1017.3
20260506100004 12 215 1.6 4.8 0.00 0.00 0.00 83 1017.3
20260506095003 12 215 1.6 4.8 0.00 0.00 0.00 83 1017.3
20260506094004 12 229 1.6 4.8 0.00 0.00 0.00 84 1016.9
20260506093004 12 142 1.6 3.2 0.00 0.00 0.00 84 1016.9
20260506092003 12 142 1.6 3.2 0.00 0.00 0.00 84 1016.9
20260506091003 12 223 0.0 1.6 0.00 0.00 0.00 84 1016.9
20260506090004 12 223 0.0 4.8 0.00 0.00 0.00 84 1016.9
20260506085003 12 223 0.0 4.8 0.00 0.00 0.00 84 1016.9
20260506084004 12 216 0.0 4.8 0.00 0.00 0.00 84 1016.9
20260506083004 12 232 0.0 4.8 0.00 0.00 0.00 84 1016.6
20260506082003 12 232 0.0 4.8 0.00 0.00 0.00 84 1016.6
20260506081003 12 232 0.0 6.4 0.00 0.00 0.00 84 1016.6
20260506073004 12 210 0.0 3.2 0.00 0.00 0.00 84 1016.3
20260506072004 12 210 0.0 3.2 0.00 0.00 0.00 84 1016.3
20260506071004 13 199 1.6 3.2 0.00 0.00 0.00 85 1016.3
20260506062003 12 230 0.0 3.2 0.00 0.00 0.00 84 1015.9
20260506061004 12 336 0.0 4.8 0.00 0.00 0.00 84 1015.9
20260506051003 12 231 1.6 3.2 0.00 0.00 0.00 84 1015.6
20260506045004 12 9 0.0 3.2 0.00 0.00 0.00 84 1015.6
20260506044003 12 203 0.0 1.6 0.00 0.00 0.00 84 1015.6
20260506043003 12 225 0.0 3.2 0.00 0.00 0.00 83 1015.2
20260506042003 12 225 0.0 3.2 0.00 0.00 0.00 83 1015.2
20260506041003 13 109 0.0 1.6 0.00 0.00 0.00 83 1014.9